EWG4E EDXW-EDDL

Flight info

Callsign EWG4E
Flight time 0h 50m
Altitude 28000
Route OLDIP1A OLDIP DCT ABFAD DCT GASTU DCT PARYD DCT ATPAQ Z529 HMM T851 HALME HALME1A
Aircraft A319/M-SDE3FGHIRWY/LB1

Departure

Time 2026-04-30 09:18
Airport Westerland Sylt Airport (EDXW)

Arrival

Time 2026-04-30 10:09
Airport Düsseldorf Airport (EDDL)
Time Latitude Longitude Altitude Speed Heading
2026-04-30 08:58 54.91386 8.33117 29 ft 0 kts 270°
2026-04-30 09:08 54.91386 8.33126 29 ft 4 kts 269°
2026-04-30 09:08 54.91387 8.33173 29 ft 4 kts 266°
2026-04-30 09:09 54.91386 8.33218 29 ft 4 kts 296°
2026-04-30 09:09 54.91371 8.33242 29 ft 4 kts 333°
2026-04-30 09:09 54.91357 8.33249 29 ft 0 kts 360°
2026-04-30 09:12 54.91372 8.33249 29 ft 4 kts 360°
2026-04-30 09:13 54.91415 8.33240 29 ft 8 kts 342°
2026-04-30 09:13 54.91478 8.33182 29 ft 11 kts 340°
2026-04-30 09:13 54.91561 8.33176 33 ft 12 kts 360°
2026-04-30 09:13 54.91643 8.33176 35 ft 12 kts
2026-04-30 09:14 54.91734 8.33177 35 ft 13 kts
2026-04-30 09:14 54.91810 8.33191 35 ft 10 kts 19°
2026-04-30 09:14 54.91821 8.33198 34 ft 0 kts 20°
2026-04-30 09:15 54.91823 8.33199 34 ft 2 kts 20°
2026-04-30 09:15 54.91849 8.33216 35 ft 6 kts 20°
2026-04-30 09:16 54.91894 8.33275 35 ft 10 kts 59°
2026-04-30 09:16 54.91875 8.33368 35 ft 0 kts 143°
2026-04-30 09:17 54.91867 8.33378 35 ft 8 kts 144°
2026-04-30 09:17 54.91615 8.33687 36 ft 82 kts 144°
2026-04-30 09:17 54.90971 8.34480 42 ft 145 kts 145°
2026-04-30 09:18 54.90123 8.35521 612 ft 148 kts 146°
2026-04-30 09:18 54.89276 8.36570 1299 ft 149 kts 146°
2026-04-30 09:18 54.88387 8.37669 1696 ft 167 kts 146°
2026-04-30 09:18 54.87372 8.38918 2058 ft 191 kts 146°
2026-04-30 09:19 54.86213 8.40351 2462 ft 217 kts 145°
2026-04-30 09:19 54.84912 8.41962 2997 ft 242 kts 145°
2026-04-30 09:19 54.83521 8.43677 3829 ft 253 kts 144°
2026-04-30 09:19 54.82068 8.45463 4816 ft 259 kts 143°
2026-04-30 09:20 54.80589 8.47282 5806 ft 263 kts 142°
2026-04-30 09:20 54.79081 8.49141 6777 ft 268 kts 142°
2026-04-30 09:20 54.77552 8.51031 7685 ft 272 kts 141°
2026-04-30 09:20 54.76000 8.52951 8605 ft 276 kts 141°
2026-04-30 09:21 54.74425 8.54896 9523 ft 280 kts 141°
2026-04-30 09:21 54.72827 8.56860 10430 ft 284 kts 141°
2026-04-30 09:21 54.71200 8.58855 11250 ft 288 kts 141°
2026-04-30 09:21 54.69531 8.60899 11751 ft 305 kts 141°
2026-04-30 09:22 54.67737 8.63099 12116 ft 324 kts 141°
2026-04-30 09:22 54.65874 8.65373 12791 ft 331 kts 141°
2026-04-30 09:22 54.63937 8.67596 13492 ft 339 kts 147°
2026-04-30 09:22 54.61728 8.69173 14218 ft 350 kts 160°
2026-04-30 09:23 54.59296 8.69839 14868 ft 359 kts 174°
2026-04-30 09:23 54.56769 8.69578 15521 ft 366 kts 182°
2026-04-30 09:23 54.54220 8.69132 16175 ft 370 kts 182°
2026-04-30 09:23 54.51644 8.68700 16823 ft 374 kts 181°
2026-04-30 09:24 54.49041 8.68277 17469 ft 378 kts 181°
2026-04-30 09:24 54.46408 8.67854 18117 ft 382 kts 181°
2026-04-30 09:24 54.43741 8.67425 18764 ft 386 kts 180°
2026-04-30 09:24 54.41053 8.66992 19302 ft 391 kts 180°
2026-04-30 09:25 54.38334 8.66550 19873 ft 394 kts 181°
2026-04-30 09:25 54.35590 8.66098 20451 ft 397 kts 181°
2026-04-30 09:25 54.32862 8.65646 21020 ft 400 kts 181°
2026-04-30 09:25 54.30079 8.65180 21594 ft 404 kts 181°
2026-04-30 09:26 54.27273 8.64717 22156 ft 407 kts 181°
2026-04-30 09:26 54.24441 8.64255 22709 ft 410 kts 181°
2026-04-30 09:26 54.21596 8.63791 23256 ft 413 kts 182°
2026-04-30 09:26 54.18723 8.63322 23812 ft 416 kts 182°
2026-04-30 09:27 54.15821 8.62847 24317 ft 419 kts 182°
2026-04-30 09:27 54.12911 8.62374 24761 ft 422 kts 182°
2026-04-30 09:27 54.09966 8.61896 25204 ft 425 kts 182°
2026-04-30 09:27 54.07012 8.61420 25641 ft 428 kts 182°
2026-04-30 09:28 54.04038 8.60938 26072 ft 431 kts 182°
2026-04-30 09:28 54.01050 8.60284 26492 ft 436 kts 189°
2026-04-30 09:28 53.98129 8.58812 26914 ft 441 kts 200°
2026-04-30 09:28 53.95379 8.56456 27334 ft 446 kts 211°
2026-04-30 09:29 53.92893 8.53279 27755 ft 449 kts 222°
2026-04-30 09:29 53.90711 8.49471 28184 ft 451 kts 227°
2026-04-30 09:29 53.88562 8.45562 28482 ft 453 kts 227°
2026-04-30 09:29 53.86453 8.41748 28532 ft 442 kts 227°
2026-04-30 09:30 53.84381 8.38024 28522 ft 427 kts 227°
2026-04-30 09:30 53.82339 8.34373 28534 ft 416 kts 226°
2026-04-30 09:30 53.78412 8.27364 28533 ft 411 kts 226°
2026-04-30 09:31 53.74475 8.20361 28528 ft 410 kts 226°
2026-04-30 09:31 53.70550 8.13361 28522 ft 410 kts 226°
2026-04-30 09:32 53.66619 8.06368 28518 ft 411 kts 226°
2026-04-30 09:32 53.62516 7.99712 28512 ft 409 kts 215°
2026-04-30 09:33 53.57756 7.94459 28508 ft 409 kts 211°
2026-04-30 09:33 53.52972 7.89295 28504 ft 409 kts 212°
2026-04-30 09:34 53.48189 7.84133 28508 ft 409 kts 212°
2026-04-30 09:34 53.43410 7.78968 28497 ft 408 kts 211°
2026-04-30 09:35 53.39432 7.74701 28495 ft 408 kts 211°
2026-04-30 09:35 53.34645 7.69584 28494 ft 408 kts 211°
2026-04-30 09:36 53.29871 7.64481 28501 ft 407 kts 211°
2026-04-30 09:36 53.25096 7.59406 28502 ft 406 kts 211°
2026-04-30 09:37 53.20330 7.54332 28497 ft 406 kts 211°
2026-04-30 09:37 53.15563 7.49276 28501 ft 406 kts 211°
2026-04-30 09:38 53.10790 7.44238 28499 ft 406 kts 211°
2026-04-30 09:38 53.08319 7.41991 28498 ft 404 kts 200°
2026-04-30 09:38 53.05643 7.40633 28498 ft 400 kts 187°
2026-04-30 09:39 53.02886 7.40243 28496 ft 396 kts 175°
2026-04-30 09:39 53.00180 7.40816 28502 ft 390 kts 162°
2026-04-30 09:39 52.95199 7.44128 28499 ft 385 kts 151°
2026-04-30 09:40 52.90340 7.47851 28498 ft 385 kts 151°
2026-04-30 09:40 52.85470 7.51565 28502 ft 385 kts 151°
2026-04-30 09:41 52.80629 7.55257 28498 ft 385 kts 151°
2026-04-30 09:41 52.75728 7.58978 28509 ft 386 kts 151°
2026-04-30 09:42 52.70884 7.62663 28501 ft 386 kts 151°
2026-04-30 09:42 52.66011 7.66358 28498 ft 386 kts 151°
2026-04-30 09:43 52.61131 7.70040 28491 ft 386 kts 151°
2026-04-30 09:43 52.56249 7.73710 28492 ft 386 kts 152°
2026-04-30 09:44 52.51013 7.75923 28491 ft 394 kts 171°
2026-04-30 09:44 52.45547 7.76799 28493 ft 394 kts 171°
2026-04-30 09:45 52.40091 7.77696 28479 ft 394 kts 171°
2026-04-30 09:45 52.37359 7.78144 28215 ft 394 kts 171°
2026-04-30 09:45 52.34635 7.78462 27956 ft 392 kts 177°
2026-04-30 09:46 52.31923 7.78153 27588 ft 391 kts 182°
2026-04-30 09:46 52.29219 7.77711 27200 ft 389 kts 182°
2026-04-30 09:46 52.26537 7.77275 26822 ft 386 kts 182°
2026-04-30 09:46 52.23876 7.76851 26439 ft 383 kts 182°
2026-04-30 09:47 52.21228 7.76432 26044 ft 381 kts 182°
2026-04-30 09:47 52.18632 7.76022 25661 ft 379 kts 182°
2026-04-30 09:47 52.15983 7.75602 25257 ft 376 kts 182°
2026-04-30 09:47 52.13417 7.75193 24850 ft 375 kts 182°
2026-04-30 09:48 52.10829 7.74781 24444 ft 373 kts 182°
2026-04-30 09:48 52.08254 7.74369 24021 ft 372 kts 182°
2026-04-30 09:48 52.05685 7.73961 23566 ft 369 kts 182°
2026-04-30 09:48 52.03141 7.73559 23139 ft 366 kts 182°
2026-04-30 09:49 52.00617 7.73159 22721 ft 363 kts 182°
2026-04-30 09:49 51.98112 7.72769 22305 ft 360 kts 182°
2026-04-30 09:49 51.95630 7.72382 21901 ft 357 kts 181°
2026-04-30 09:49 51.93162 7.71995 21491 ft 355 kts 181°
2026-04-30 09:50 51.90713 7.71597 21081 ft 353 kts 184°
2026-04-30 09:50 51.88328 7.70603 20670 ft 357 kts 199°
2026-04-30 09:50 51.86170 7.68612 20253 ft 360 kts 216°
2026-04-30 09:50 51.84406 7.65742 19830 ft 362 kts 232°
2026-04-30 09:51 51.83137 7.62232 19408 ft 362 kts 244°
2026-04-30 09:51 51.82054 7.58546 18979 ft 362 kts 244°
2026-04-30 09:51 51.80970 7.54881 18524 ft 362 kts 243°
2026-04-30 09:51 51.79882 7.51224 18092 ft 360 kts 243°
2026-04-30 09:52 51.78798 7.47591 17664 ft 358 kts 243°
2026-04-30 09:52 51.77722 7.43987 17243 ft 356 kts 243°
2026-04-30 09:52 51.76650 7.40398 16825 ft 353 kts 243°
2026-04-30 09:52 51.75584 7.36835 16398 ft 352 kts 243°
2026-04-30 09:53 51.74520 7.33289 15986 ft 350 kts 243°
2026-04-30 09:53 51.73461 7.29767 15571 ft 348 kts 243°
2026-04-30 09:53 51.72402 7.26252 15160 ft 347 kts 243°
2026-04-30 09:53 51.71183 7.22922 14752 ft 343 kts 230°
2026-04-30 09:54 51.69527 7.20196 14350 ft 338 kts 215°
2026-04-30 09:54 51.67553 7.18231 13982 ft 329 kts 200°
2026-04-30 09:54 51.65447 7.16914 13645 ft 323 kts 196°
2026-04-30 09:54 51.63353 7.15652 13314 ft 320 kts 196°
2026-04-30 09:55 51.61278 7.14398 12987 ft 317 kts 196°
2026-04-30 09:55 51.59214 7.13150 12662 ft 315 kts 196°
2026-04-30 09:55 51.57171 7.11892 12333 ft 314 kts 199°
2026-04-30 09:55 51.55279 7.10103 12005 ft 318 kts 214°
2026-04-30 09:56 51.53703 7.07599 11680 ft 321 kts 229°
2026-04-30 09:56 51.52368 7.04734 11352 ft 320 kts 230°
2026-04-30 09:56 51.51037 7.01887 11034 ft 318 kts 230°
2026-04-30 09:56 51.49724 6.99093 10714 ft 317 kts 230°
2026-04-30 09:57 51.48396 6.96280 10391 ft 315 kts 229°
2026-04-30 09:57 51.47080 6.93496 10046 ft 312 kts 229°
2026-04-30 09:57 51.45774 6.90741 9725 ft 309 kts 229°
2026-04-30 09:57 51.44478 6.88003 9412 ft 307 kts 229°
2026-04-30 09:58 51.43193 6.85288 9106 ft 305 kts 229°
2026-04-30 09:58 51.41914 6.82590 8787 ft 303 kts 229°
2026-04-30 09:58 51.40640 6.79906 8483 ft 301 kts 229°
2026-04-30 09:58 51.39371 6.77235 8172 ft 300 kts 229°
2026-04-30 09:59 51.36867 6.71955 7577 ft 296 kts 229°
2026-04-30 09:59 51.34344 6.66659 6741 ft 299 kts 228°
2026-04-30 10:00 51.31893 6.61513 6330 ft 285 kts 228°
2026-04-30 10:00 51.30707 6.59025 6199 ft 277 kts 227°
2026-04-30 10:01 51.28434 6.54281 5949 ft 261 kts 227°
2026-04-30 10:01 51.27349 6.52018 5819 ft 253 kts 227°
2026-04-30 10:01 51.26293 6.49816 5673 ft 247 kts 227°
2026-04-30 10:02 51.24215 6.45498 5126 ft 244 kts 226°
2026-04-30 10:02 51.23124 6.43461 4833 ft 237 kts 213°
2026-04-30 10:02 51.21734 6.42263 4576 ft 221 kts 187°
2026-04-30 10:02 51.20258 6.42100 4319 ft 207 kts 164°
2026-04-30 10:03 51.18940 6.42825 4065 ft 197 kts 144°
2026-04-30 10:03 51.17930 6.44223 3819 ft 191 kts 125°
2026-04-30 10:03 51.17317 6.46075 3564 ft 191 kts 107°
2026-04-30 10:03 51.17159 6.48164 3295 ft 192 kts 89°
2026-04-30 10:04 51.17324 6.50277 3146 ft 192 kts 86°
2026-04-30 10:04 51.17488 6.52400 3048 ft 193 kts 84°
2026-04-30 10:04 51.17993 6.54400 3014 ft 200 kts 60°
2026-04-30 10:04 51.18835 6.56163 3003 ft 193 kts 58°
2026-04-30 10:05 51.19638 6.57816 2885 ft 186 kts 58°
2026-04-30 10:05 51.20416 6.59435 2661 ft 182 kts 58°
2026-04-30 10:05 51.21195 6.61056 2430 ft 183 kts 58°
2026-04-30 10:05 51.21955 6.62642 2230 ft 177 kts 56°
2026-04-30 10:06 51.22681 6.64154 1959 ft 166 kts 57°
2026-04-30 10:06 51.23358 6.65565 1729 ft 155 kts 57°
2026-04-30 10:06 51.23992 6.66888 1517 ft 141 kts 57°
2026-04-30 10:06 51.24566 6.68088 1327 ft 135 kts 58°
2026-04-30 10:07 51.25137 6.69285 1131 ft 136 kts 59°
2026-04-30 10:07 51.25710 6.70485 952 ft 136 kts 58°
2026-04-30 10:07 51.26289 6.71695 775 ft 133 kts 57°
2026-04-30 10:07 51.26842 6.72850 584 ft 131 kts 59°
2026-04-30 10:08 51.27395 6.74011 407 ft 132 kts 58°
2026-04-30 10:08 51.27954 6.75185 239 ft 132 kts 56°
2026-04-30 10:08 51.28498 6.76321 128 ft 120 kts 53°
2026-04-30 10:08 51.28897 6.77162 126 ft 70 kts 53°
2026-04-30 10:09 51.29023 6.77446 128 ft 14 kts 70°
2026-04-30 10:09 51.29004 6.77572 126 ft 14 kts 131°
2026-04-30 10:09 51.28944 6.77643 129 ft 9 kts 148°
2026-04-30 10:09 51.28883 6.77606 129 ft 12 kts 229°
2026-04-30 10:10 51.28829 6.77496 128 ft 13 kts 232°
2026-04-30 10:10 51.28768 6.77368 128 ft 16 kts 233°
2026-04-30 10:10 51.28700 6.77221 129 ft 17 kts 233°
2026-04-30 10:10 51.28623 6.77058 128 ft 19 kts 232°
2026-04-30 10:11 51.28536 6.76878 126 ft 22 kts 232°
2026-04-30 10:11 51.28436 6.76670 124 ft 25 kts 232°
2026-04-30 10:11 51.28326 6.76434 126 ft 27 kts 233°
2026-04-30 10:11 51.28246 6.76267 126 ft 9 kts 232°
2026-04-30 10:12 51.28189 6.76248 128 ft 11 kts 152°
2026-04-30 10:12 51.28133 6.76349 126 ft 12 kts 120°
2026-04-30 10:12 51.28114 6.76466 126 ft 8 kts 96°
2026-04-30 10:12 51.28109 6.76536 128 ft 2 kts 96°
2026-04-30 10:13 51.28109 6.76541 128 ft 0 kts 96°